FW1987 Weather Reports


time (UTC)temp
F
wind
direction
speed
knots
gust
knots
rain 1hr
in
rain 24hr
in
rain mn
in
humidity
%
barometer
mb
20260507194502 65 248 0.0 3.5 0.00 0.00 0.00 73 1012.7
20260507193024 65 236 0.0 0.0 0.00 0.00 0.00 74 1012.5
20260507191540 66 241 0.0 1.7 0.00 0.00 0.00 70 1012.3
20260507190006 66 236 0.0 4.3 0.00 0.00 0.00 69 1012.0
20260507184528 66 213 0.0 0.9 0.00 0.00 0.00 73 1011.9
20260507183046 66 202 0.0 3.5 0.00 0.00 0.00 75 1011.6
20260507181606 67 205 0.0 4.3 0.00 0.00 0.00 75 1011.5
20260507180010 67 189 0.0 4.3 0.00 0.00 0.00 73 1011.2
20260507174525 68 146 0.0 3.5 0.00 0.00 0.00 70 1011.0
20260507173108 69 202 0.0 1.7 0.00 0.00 0.00 67 1010.8
20260507171611 70 183 0.0 6.1 0.00 0.00 0.00 63 1010.6
20260507170014 71 213 0.0 1.7 0.00 0.00 0.00 55 1010.5
20260507164543 72 219 0.0 1.7 0.00 0.00 0.00 56 1010.5
20260507163047 72 211 0.0 0.0 0.00 0.00 0.00 55 1010.5
20260507161607 72 116 0.0 0.0 0.00 0.00 0.00 56 1010.5
20260507160048 72 121 0.0 0.0 0.00 0.00 0.00 56 1010.5
20260507154518 72 134 0.0 0.0 0.00 0.00 0.00 55 1010.4
20260507153032 72 109 0.0 0.9 0.00 0.00 0.00 56 1010.4
20260507151501 72 89 0.0 2.6 0.00 0.00 0.00 56 1010.2
20260507150036 72 119 0.9 6.1 0.00 0.00 0.00 55 1010.2
20260507144505 75 355 0.0 4.3 0.00 0.00 0.00 47 1010.3
20260507143049 74 24 0.0 9.6 0.00 0.00 0.00 48 1010.4
20260507141502 75 355 0.9 7.8 0.00 0.00 0.00 47 1010.5
20260507140015 75 319 0.0 5.2 0.00 0.00 0.00 47 1010.5
20260507134535 74 360 0.0 9.6 0.00 0.02 0.00 50 1010.6
20260507133051 73 343 0.0 7.8 0.00 0.02 0.00 52 1010.6
20260507131551 73 314 0.0 7.0 0.00 0.02 0.00 50 1010.7
20260507130003 74 13 0.0 9.6 0.00 0.35 0.00 50 1010.8
20260507124520 74 323 0.0 5.2 0.00 0.35 0.00 50 1010.8
20260507123041 74 360 0.0 7.0 0.00 0.35 0.00 54 1010.8
20260507121501 73 360 0.9 10.4 0.00 0.35 0.00 51 1010.8
20260507120035 72 20 0.0 6.1 0.00 0.35 0.00 53 1010.9
20260507114541 72 5 0.0 4.3 0.00 0.35 0.00 55 1010.9
20260507113109 72 292 0.0 8.7 0.00 0.35 0.00 55 1011.0
20260507111514 71 349 0.0 6.1 0.00 0.35 0.00 58 1011.1
20260507110107 71 18 0.0 5.2 0.00 0.35 0.00 60 1011.2
20260507104522 71 341 0.0 6.1 0.00 0.35 0.00 61 1011.4
20260507103040 70 334 0.0 7.8 0.00 0.35 0.00 62 1011.7
20260507101602 69 5 0.0 6.1 0.00 0.35 0.00 64 1011.8
20260507100036 69 323 0.0 5.2 0.00 0.35 0.00 60 1011.9
20260507094557 69 360 0.0 6.1 0.00 0.35 0.00 61 1011.9
20260507093005 68 303 0.0 0.0 0.00 0.35 0.00 65 1011.7
20260507091525 67 17 0.0 6.1 0.00 0.35 0.00 65 1011.7
20260507090055 67 29 0.0 0.0 0.00 0.35 0.00 67 1011.7
20260507084512 68 348 0.0 0.0 0.00 0.35 0.00 69 1011.7
20260507083024 66 315 0.0 0.0 0.00 0.35 0.00 74 1011.7
20260507081550 65 63 0.0 0.0 0.00 0.35 0.00 78 1011.6
20260507080011 64 64 0.0 0.0 0.00 0.35 0.00 80 1011.7
20260507074532 65 64 0.0 0.0 0.00 0.35 0.00 81 1011.7
20260507073134 64 64 0.0 0.0 0.00 0.35 0.00 81 1011.5
20260507071524 64 88 0.0 0.0 0.00 0.35 0.00 83 1011.5
20260507070039 62 90 0.0 0.0 0.00 0.35 0.00 86 1011.4
20260507064609 62 89 0.0 0.0 0.00 0.35 0.00 85 1011.2
20260507063015 62 90 0.0 0.0 0.00 0.35 0.00 88 1011.2
20260507061537 61 90 0.0 0.0 0.00 0.35 0.00 89 1011.2
20260507060056 61 117 0.0 0.0 0.00 0.35 0.00 94 1011.3
20260507054539 59 143 0.0 0.0 0.00 0.35 0.00 96 1011.0
20260507053102 57 142 0.0 0.0 0.00 0.35 0.00 97 1010.9
20260507051512 56 143 0.0 0.0 0.00 0.35 0.00 96 1010.8
20260507050041 55 143 0.0 0.0 0.00 0.35 0.00 96 1010.6
20260507044507 55 142 0.0 0.0 0.00 0.35 0.00 96 1010.6
20260507043033 55 142 0.0 0.0 0.00 0.35 0.00 96 1010.3
20260507041550 55 142 0.0 0.0 0.00 0.35 0.00 96 1010.1
20260507040024 55 143 0.0 0.0 0.00 0.35 0.00 96 1010.0
20260507034544 55 142 0.0 0.0 0.00 0.37 0.00 96 1010.0
20260507033104 55 142 0.0 0.0 0.00 0.37 0.00 96 1009.9
20260507031512 55 142 0.0 0.0 0.00 0.37 0.00 96 1009.9
20260507030031 55 142 0.0 0.0 0.00 0.37 0.00 96 1009.8
20260507024554 55 143 0.0 0.0 0.00 0.37 0.00 95 1009.8
20260507023103 55 143 0.0 0.0 0.00 0.37 0.00 95 1009.8
20260507021525 55 142 0.0 0.0 0.00 0.37 0.00 95 1009.8
20260507020145 56 143 0.0 0.0 0.00 0.37 0.00 95 1009.7
20260507014520 56 143 0.0 0.0 0.00 0.37 0.00 95 1009.7
20260507013103 56 142 0.0 0.0 0.00 0.37 0.00 95 1009.7
20260507011505 56 142 0.0 0.0 0.00 0.37 0.00 95 1009.6
20260507010031 56 143 0.0 0.0 0.00 0.37 0.00 95 1009.5
20260507004539 56 143 0.0 0.0 0.00 0.37 0.00 95 1009.7
20260507003104 56 143 0.0 0.0 0.00 0.37 0.00 95 1009.6
20260507001517 57 142 0.0 0.0 0.00 0.37 0.00 95 1009.7
20260507000034 57 143 0.0 0.0 0.00 0.37 0.00 95 1009.6
20260506234608 57 143 0.0 0.0 0.00 0.37 0.00 95 1009.7
20260506233032 58 142 0.0 0.0 0.00 0.37 0.00 95 1009.7
20260506231601 58 143 0.0 0.0 0.00 0.37 0.00 95 1009.7
20260506230023 58 143 0.0 0.0 0.00 0.37 0.00 95 1009.6
20260506224549 58 142 0.0 0.0 0.00 0.37 0.00 95 1009.5
20260506223059 58 142 0.0 0.0 0.00 0.37 0.00 95 1009.6
20260506221516 58 142 0.0 0.0 0.00 0.37 0.00 95 1009.6
20260506220045 58 143 0.0 0.0 0.00 0.37 0.00 95 1009.6
20260506214515 58 143 0.0 0.0 0.00 0.37 0.37 94 1009.4
20260506213037 58 142 0.0 0.0 0.00 0.37 0.37 94 1009.4
20260506211507 59 142 0.0 0.0 0.00 0.37 0.37 94 1009.4
20260506210017 59 143 0.0 0.0 0.00 0.37 0.37 94 1009.3
20260506204552 59 142 0.0 0.0 0.00 0.37 0.37 94 1009.3
20260506203021 60 143 0.0 0.0 0.00 0.37 0.37 93 1009.2
20260506201536 60 143 0.0 0.0 0.00 0.37 0.37 93 1009.2
20260506200056 60 142 0.0 0.0 0.00 0.37 0.37 93 1009.0